Regional Weather Roundup
Issued by NWS

Home | Current Version | Previous Version | Text Only | Print | Product List | Glossary Off
Versions: 1 2 3 4 5 6 7 8 9 10 11 12 13 14 15 16 17 18 19 20 21 22 23 24 25 26 27 28

000
ASUS45 KSLC 252010
RWRUT

UTAH REGIONAL WEATHER ROUNDUP
NATIONAL WEATHER SERVICE SALT LAKE CITY UT
200 PM MDT SUN SEP 25 2016

UTZ001>011-023>025-252100-

NORTHERN UTAH

CITY           SKY/WX    TMP DP  RH WIND       PRES   REMARKS
BRIGHAM CITY     N/A     64  38  38 CALM      30.47F
HILL AFB       SUNNY     62  40  45 VRB3      30.47F
LOGAN          SUNNY     61  35  37 CALM      30.47F
OGDEN          SUNNY     63  39  41 NW6       30.46F
PROVO AIRPORT  SUNNY     60  44  55 W3        30.47F
SALT LAKE CITY SUNNY     65  44  46 NW14      30.45F
VERNAL         SUNNY     60  39  45 W10       30.48F
WENDOVER       SUNNY     64  39  39 SE7       30.47F
HEBER CITY     SUNNY     63  34  34 CALM      30.45F
WEST JORDAN    SUNNY     63  44  50 NW14G22   30.46F

$$

UTZ012>022-026-027-252100-

SOUTHERN/CENTRAL UTAH

CITY           SKY/WX    TMP DP  RH WIND       PRES   REMARKS
BLANDING       SUNNY     68  29  23 E7        30.45F
CEDAR CITY     SUNNY     67  35  30 N17       30.41F
DELTA          SUNNY     64  36  34 NE5       30.44F
MILFORD        SUNNY     67  34  29 N21G26    30.43F
MOAB/CYNLANDS  SUNNY     68  35  29 VRB5      30.37F
PRICE          SUNNY     62  35  36 VRB3      30.47F
ST GEORGE      CLEAR     81  34  18 NE9       30.28F

$$

REGIONAL REPORTS     COLORADO/ARIZONA

CITY           SKY/WX    TMP DP  RH WIND       PRES   REMARKS
CRAIG, CO      SUNNY     60  34  37 NW7       30.48F
GRAND JUNCTION SUNNY     65  37  35 VRB3      30.40F
RIFLE          SUNNY     64  33  31 CALM      30.43F
MONTROSE       SUNNY     61  39  44 NE8       30.45F
CORTEZ         SUNNY     70  35  27 VRB3      30.36F
PAGE, AZ       SUNNY     73  28  18 NE12      30.33F
GRAND CANYON   SUNNY     63  32  31 NE26G32   30.42S
KINGMAN        SUNNY     81  30  15 N18G30    30.20F
FLAGSTAFF      SUNNY     61  34  36 NE15G28   30.37F

$$

REGIONAL REPORTS    NEVADA/IDAHO/WYOMING

CITY           SKY/WX    TMP DP  RH WIND       PRES   REMARKS
LAS VEGAS, NV  SUNNY     84  28  13 NE22      30.20F
ELY            SUNNY     66  28  24 N15G24    30.48F
ELKO           SUNNY     69  25  19 VRB3      30.47F
POCATELLO, ID  SUNNY     63  38  39 W8        30.49F
BURLEY         SUNNY     62  39  42 W8        30.47F
EVANSTON, WY   SUNNY     58  24  27 N9        30.53F
ROCK SPRINGS   SUNNY     55  34  45 SW12      30.50F

$$




USA.gov is the U.S. government's official web portal to all federal, state and local government web resources and services.